Weather History for Jacksonville Craig, FL

Change the Weather History Date:

Thursday, July 18, 2013

  Actual Average Record
Temperature  
Mean Temperature 80 °F -  
Max Temperature 90 °F 88 °F 96 °F (2000)
Min Temperature 73 °F 71 °F 71 °F (1996)
Cooling Degree Days 16    
Growing Degree Days 30 (Base 50)    
Moisture  
Dew Point 71 °F    
Average Humidity 74    
Maximum Humidity 88    
Minimum Humidity 57    
Precipitation  
Precipitation 0.00 in - - ()
Sea Level Pressure  
Sea Level Pressure 30.12 in    
Wind  
Wind Speed 3 mph (East)    
Max Wind Speed 12 mph    
Max Gust Speed -    
Visibility 10 miles    
Events Rain    
Averages and records for this station are not official NWS values.
T = Trace of Precipitation, MM = Missing Value Source: NWS Daily Summary

Daily Weather History Graph

Daily Weather History Graph

Search for Another Location

Airport:

Trip Planner

Search our weather history database for the weather conditions in past years. The results will help you decide how hot, cold, wet, or windy it might be!

Date:

Astronomy

Jul. 18, 2013 Rise Set
Actual Time 6:36 AM EDT 8:28 PM EDT
Civil Twilight 6:09 AM EDT 8:54 PM EDT
Nautical Twilight 5:37 AM EDT 9:27 PM EDT
Astronomical Twilight 5:02 AM EDT 10:01 PM EDT
Moon 4:25 PM EDT (7/18) 2:21 AM EDT (7/18)
Length of Visible Light 14h 45m
Length of Day
13h 51m
Waxing Gibbous, 77% of the Moon is Illuminated
Jul 18
Waxing Gibbous
Jul 22
Full
Jul 29
Last Quarter
Aug 6
New
Aug 14
First Quarter

Hourly Weather History & Observations

Time (EDT) Temp. Heat Index Dew Point Humidity Pressure Visibility Wind Dir Wind Speed Gust Speed Precip Events Conditions
12:53 AM 75.9 °F - 71.1 °F 85% 30.15 in 10.0 mi Calm Calm - N/A   Clear
1:53 AM 75.0 °F - 71.1 °F 87% 30.14 in 10.0 mi Calm Calm - N/A   Clear
2:53 AM 73.9 °F - 70.0 °F 87% 30.12 in 10.0 mi Calm Calm - N/A   Clear
3:53 AM 73.9 °F - 70.0 °F 87% 30.12 in 10.0 mi Calm Calm - N/A   Clear
4:53 AM 73.9 °F - 70.0 °F 87% 30.12 in 10.0 mi Calm Calm - N/A   Clear
5:37 AM 73.4 °F - 69.8 °F 88% 30.12 in 10.0 mi Calm Calm - N/A   Partly Cloudy
5:53 AM 73.0 °F - 69.1 °F 87% 30.12 in 10.0 mi Calm Calm - N/A   Clear
6:53 AM 73.0 °F - 69.1 °F 87% 30.13 in 10.0 mi Calm Calm - N/A   Clear
7:53 AM 78.1 °F - 73.9 °F 87% 30.15 in 10.0 mi Calm Calm - N/A   Clear
8:53 AM 82.9 °F 89.4 °F 73.9 °F 74% 30.15 in 10.0 mi East 4.6 mph - N/A   Partly Cloudy
9:53 AM 84.9 °F 90.7 °F 72.0 °F 65% 30.15 in 10.0 mi East 6.9 mph - N/A   Mostly Cloudy
10:03 AM 84.2 °F 89.6 °F 71.6 °F 66% 30.15 in 10.0 mi ESE 5.8 mph - N/A   Scattered Clouds
10:53 AM 84.9 °F 90.1 °F 71.1 °F 63% 30.15 in 10.0 mi East 8.1 mph - N/A   Scattered Clouds
11:53 AM 87.1 °F 93.6 °F 72.0 °F 61% 30.15 in 10.0 mi East 8.1 mph - N/A   Scattered Clouds
12:53 PM 87.1 °F 92.0 °F 70.0 °F 57% 30.15 in 10.0 mi East 9.2 mph - N/A   Mostly Cloudy
1:53 PM 88.0 °F 93.8 °F 71.1 °F 57% 30.14 in 10.0 mi ESE 8.1 mph - N/A   Partly Cloudy
2:53 PM 87.1 °F 93.6 °F 72.0 °F 61% 30.12 in 10.0 mi East 6.9 mph - N/A   Partly Cloudy
3:53 PM 87.1 °F 93.6 °F 72.0 °F 61% 30.10 in 10.0 mi East 6.9 mph - 0.00 in   Partly Cloudy
4:53 PM 86.0 °F 92.2 °F 72.0 °F 63% 30.09 in 10.0 mi East 10.4 mph - 0.00 in   Scattered Clouds
5:53 PM 86.0 °F 92.2 °F 72.0 °F 63% 30.07 in 10.0 mi East 11.5 mph - N/A   Clear
6:53 PM 84.9 °F 90.1 °F 71.1 °F 63% 30.07 in 10.0 mi East 10.4 mph - N/A   Clear
7:53 PM 82.9 °F 88.0 °F 72.0 °F 69% 30.09 in 10.0 mi ESE 8.1 mph - N/A   Scattered Clouds
8:53 PM 81.0 °F 85.2 °F 72.0 °F 74% 30.09 in 10.0 mi SE 3.5 mph - 0.00 in Rain Light Rain
9:53 PM 81.0 °F 85.2 °F 72.0 °F 74% 30.09 in 10.0 mi Calm Calm - 0.00 in   Clear
10:53 PM 79.0 °F - 72.0 °F 79% 30.10 in 10.0 mi Calm Calm - 0.00 in   Clear
11:53 PM 77.0 °F - 72.0 °F 84% 30.10 in 10.0 mi Calm Calm - N/A   Clear